EW1734 Weather Reports


Display with metric or nautical units.
time (UTC)temp
F
wind
direction
speed
MPH
gust
MPH
rain 1hr
in
rain 24hr
in
rain mn
in
humidity
%
barometer
mb
20260506232247 79 181 1.0 4.0 0.00 0.00 0.00 45 1015.1
20260506232232 80 331 3.0 0.0 0.00 0.00 0.00 45 1014.4
20260506232202 80 331 3.0 0.0 0.00 0.00 0.00 44 1014.4
20260506232118 81 331 3.0 0.0 0.00 0.00 0.00 44 1014.4
20260506231905 81 331 3.0 0.0 0.00 0.00 0.00 44 1014.4
20260506231835 81 331 3.0 3.0 0.00 0.00 0.00 44 1014.4
20260506231756 81 296 2.0 0.0 0.00 0.00 0.00 45 1014.6
20260506231745 79 39 0.0 5.0 0.00 0.00 0.00 46 1015.2
20260506231733 80 296 2.0 0.0 0.00 0.00 0.00 45 1014.6
20260506231709 80 296 2.0 0.0 0.00 0.00 0.00 45 1014.6
20260506231645 80 296 2.0 0.0 0.00 0.00 0.00 44 1014.6
20260506231554 80 296 2.0 0.0 0.00 0.00 0.00 45 1014.6
20260506231518 80 296 2.0 0.0 0.00 0.00 0.00 45 1014.6
20260506231436 80 296 2.0 0.0 0.00 0.00 0.00 45 1014.6
20260506231243 79 304 4.0 6.0 0.00 0.00 0.00 45 1015.2
20260506231214 80 296 2.0 0.0 0.00 0.00 0.00 45 1014.6
20260506231143 81 296 2.0 0.0 0.00 0.00 0.00 44 1014.6
20260506230942 80 296 2.0 0.0 0.00 0.00 0.00 44 1014.6
20260506230912 81 296 2.0 0.0 0.00 0.00 0.00 45 1014.6
20260506230842 81 296 2.0 0.0 0.00 0.00 0.00 44 1014.6
20260506230740 80 336 2.0 5.0 0.00 0.00 0.00 44 1015.1
20260506230641 80 296 2.0 2.0 0.00 0.00 0.00 45 1014.6
20260506230552 80 290 3.0 0.0 0.00 0.00 0.00 45 1014.8
20260506230515 80 290 3.0 0.0 0.00 0.00 0.00 44 1014.8
20260506230242 80 290 3.0 0.0 0.00 0.00 0.00 45 1014.8
20260506230236 80 290 2.0 4.0 0.00 0.00 0.00 44 1015.2
20260506230206 80 290 3.0 0.0 0.00 0.00 0.00 45 1014.8
20260506230142 80 290 3.0 0.0 0.00 0.00 0.00 45 1014.8
20260506230112 80 290 3.0 0.0 0.00 0.00 0.00 44 1014.8
20260506225823 80 290 3.0 0.0 0.00 0.00 0.00 45 1014.8
20260506225733 80 19 1.0 5.0 0.00 0.00 0.00 45 1015.3
20260506225622 80 290 3.0 0.0 0.00 0.00 0.00 45 1014.8
20260506225546 80 290 3.0 0.0 0.00 0.00 0.00 45 1014.8
20260506225516 80 290 3.0 0.0 0.00 0.00 0.00 44 1014.8
20260506225445 80 290 3.0 5.0 0.00 0.00 0.00 44 1014.8
20260506225408 80 257 4.0 0.0 0.00 0.00 0.00 45 1014.9
20260506225345 80 257 4.0 0.0 0.00 0.00 0.00 44 1014.9
20260506225321 80 257 4.0 0.0 0.00 0.00 0.00 44 1014.9
20260506225257 80 257 4.0 0.0 0.00 0.00 0.00 45 1014.9
20260506225230 80 300 2.0 4.0 0.00 0.00 0.00 45 1015.3
20260506225227 80 257 4.0 0.0 0.00 0.00 0.00 44 1014.9
20260506225204 81 257 4.0 0.0 0.00 0.00 0.00 45 1014.9
20260506225140 81 257 4.0 0.0 0.00 0.00 0.00 45 1014.9
20260506225109 81 257 4.0 0.0 0.00 0.00 0.00 44 1014.9
20260506225046 81 257 4.0 0.0 0.00 0.00 0.00 44 1014.9
20260506224726 80 337 1.0 5.0 0.00 0.00 0.00 45 1015.3
20260506224648 80 257 4.0 0.0 0.00 0.00 0.00 45 1014.9
20260506224618 80 257 4.0 0.0 0.00 0.00 0.00 43 1014.9
20260506224506 80 257 4.0 0.0 0.00 0.00 0.00 44 1014.9
20260506224442 80 257 4.0 0.0 0.00 0.00 0.00 44 1014.9
20260506224412 80 257 4.0 0.0 0.00 0.00 0.00 43 1014.9
20260506224342 80 257 4.0 0.0 0.00 0.00 0.00 44 1014.9
20260506224224 80 8 2.0 5.0 0.00 0.00 0.00 44 1015.4
20260506224135 81 345 2.0 0.0 0.00 0.00 0.00 44 1015.1
20260506224111 80 345 2.0 0.0 0.00 0.00 0.00 44 1015.1
20260506223857 80 345 2.0 0.0 0.00 0.00 0.00 44 1015.1
20260506223807 80 345 2.0 0.0 0.00 0.00 0.00 45 1015.1
20260506223720 80 216 2.0 5.0 0.00 0.00 0.00 44 1015.5
20260506223606 80 345 2.0 0.0 0.00 0.00 0.00 45 1015.1
20260506223524 80 345 2.0 0.0 0.00 0.00 0.00 44 1015.1
20260506223427 80 345 2.0 0.0 0.00 0.00 0.00 44 1015.1
20260506223225 81 345 2.0 0.0 0.00 0.00 0.00 43 1015.1
20260506223216 80 289 1.0 6.0 0.00 0.00 0.00 45 1015.6
20260506223024 81 345 2.0 0.0 0.00 0.00 0.00 43 1015.1
20260506222817 81 248 3.0 0.0 0.00 0.00 0.00 43 1015.0
20260506222754 81 248 3.0 0.0 0.00 0.00 0.00 42 1015.0
20260506222713 80 292 2.0 4.0 0.00 0.00 0.00 45 1015.6
20260506222521 81 248 3.0 0.0 0.00 0.00 0.00 43 1015.0
20260506222425 81 248 3.0 0.0 0.00 0.00 0.00 44 1015.0
20260506222328 81 248 3.0 0.0 0.00 0.00 0.00 43 1015.0
20260506222208 81 275 6.0 6.0 0.00 0.00 0.00 44 1015.5
20260506222134 81 248 3.0 0.0 0.00 0.00 0.00 42 1015.0
20260506222042 81 248 3.0 0.0 0.00 0.00 0.00 42 1015.0
20260506222008 80 248 3.0 0.0 0.00 0.00 0.00 44 1015.0
20260506221938 80 248 3.0 0.0 0.00 0.00 0.00 43 1015.0
20260506221848 80 248 3.0 0.0 0.00 0.00 0.00 43 1015.0
20260506221824 80 248 3.0 0.0 0.00 0.00 0.00 43 1015.0
20260506221754 80 248 3.0 4.0 0.00 0.00 0.00 43 1015.0
20260506221717 80 272 1.0 0.0 0.00 0.00 0.00 43 1015.3
20260506221707 80 279 1.0 5.0 0.00 0.00 0.00 45 1015.7
20260506221647 80 272 1.0 0.0 0.00 0.00 0.00 44 1015.3
20260506221617 80 272 1.0 0.0 0.00 0.00 0.00 43 1015.3
20260506221553 80 272 1.0 0.0 0.00 0.00 0.00 44 1015.3
20260506221457 80 272 1.0 0.0 0.00 0.00 0.00 43 1015.3
20260506221427 81 272 1.0 0.0 0.00 0.00 0.00 43 1015.3
20260506221357 81 272 1.0 0.0 0.00 0.00 0.00 42 1015.3
20260506221204 80 247 3.0 4.0 0.00 0.00 0.00 44 1015.6
20260506221149 82 272 1.0 0.0 0.00 0.00 0.00 42 1015.3
20260506221119 82 272 1.0 0.0 0.00 0.00 0.00 41 1015.3
20260506221049 82 272 1.0 0.0 0.00 0.00 0.00 42 1015.3
20260506220810 82 272 1.0 0.0 0.00 0.00 0.00 42 1015.3
20260506220701 80 252 3.0 4.0 0.00 0.00 0.00 44 1015.7
20260506220608 82 272 1.0 0.0 0.00 0.00 0.00 40 1015.3
20260506220537 82 272 1.0 0.0 0.00 0.00 0.00 41 1015.3
20260506220506 82 272 1.0 2.0 0.00 0.00 0.00 41 1015.3
20260506220429 82 189 5.0 0.0 0.00 0.00 0.00 41 1015.3
20260506220358 82 189 5.0 0.0 0.00 0.00 0.00 42 1015.3
20260506220328 81 189 5.0 0.0 0.00 0.00 0.00 42 1015.3
20260506220258 81 189 5.0 0.0 0.00 0.00 0.00 43 1015.3
20260506220228 81 189 5.0 0.0 0.00 0.00 0.00 42 1015.3
20260506220158 81 189 5.0 0.0 0.00 0.00 0.00 43 1015.3
20260506220156 81 326 2.0 4.0 0.00 0.00 0.00 44 1015.8
20260506220127 80 189 5.0 0.0 0.00 0.00 0.00 43 1015.3
20260506220056 80 189 5.0 0.0 0.00 0.00 0.00 42 1015.3
20260506220026 80 189 5.0 0.0 0.00 0.00 0.00 43 1015.3
20260506215954 80 189 5.0 0.0 0.00 0.00 0.00 44 1015.3
20260506215924 80 189 5.0 0.0 0.00 0.00 0.00 43 1015.3
20260506215854 79 189 5.0 0.0 0.00 0.00 0.00 43 1015.3
20260506215804 79 189 5.0 0.0 0.00 0.00 0.00 42 1015.3
20260506215714 79 189 5.0 0.0 0.00 0.00 0.00 42 1015.3
20260506215653 81 271 1.0 4.0 0.00 0.00 0.00 43 1015.8
20260506215638 79 189 5.0 0.0 0.00 0.00 0.00 42 1015.3
20260506215607 79 189 5.0 0.0 0.00 0.00 0.00 42 1015.3
20260506215537 81 189 5.0 6.0 0.00 0.00 0.00 40 1015.3
20260506215501 81 9 4.0 0.0 0.00 0.00 0.00 40 1015.3
20260506215307 82 9 4.0 0.0 0.00 0.00 0.00 40 1015.3
20260506215148 80 296 2.0 4.0 0.00 0.00 0.00 43 1016.0
20260506215046 81 9 4.0 0.0 0.00 0.00 0.00 42 1015.3
20260506215015 80 9 4.0 0.0 0.00 0.00 0.00 42 1015.3
20260506214815 80 9 4.0 0.0 0.00 0.00 0.00 41 1015.3
20260506214645 80 234 3.0 6.0 0.00 0.00 0.00 43 1016.0
20260506214608 80 9 4.0 0.0 0.00 0.00 0.00 42 1015.3
20260506214538 80 9 4.0 0.0 0.00 0.00 0.00 41 1015.3
20260506214514 81 9 4.0 0.0 0.00 0.00 0.00 42 1015.3
20260506214425 81 9 4.0 0.0 0.00 0.00 0.00 41 1015.3
20260506214329 81 9 4.0 0.0 0.00 0.00 0.00 42 1015.3
20260506214143 82 289 2.0 3.0 0.00 0.00 0.00 41 1016.0
20260506214128 81 9 4.0 4.0 0.00 0.00 0.00 41 1015.3
20260506214051 81 343 2.0 0.0 0.00 0.00 0.00 40 1015.6
20260506213851 80 343 2.0 0.0 0.00 0.00 0.00 41 1015.6
20260506213819 80 343 2.0 0.0 0.00 0.00 0.00 42 1015.6
20260506213756 80 343 2.0 0.0 0.00 0.00 0.00 42 1015.6
20260506213725 80 343 2.0 0.0 0.00 0.00 0.00 43 1015.6
20260506213654 80 343 2.0 0.0 0.00 0.00 0.00 42 1015.6
20260506213641 81 237 3.0 4.0 0.00 0.00 0.00 43 1016.4
20260506213624 80 343 2.0 0.0 0.00 0.00 0.00 43 1015.6
20260506213553 79 343 2.0 0.0 0.00 0.00 0.00 43 1015.6
20260506213524 79 343 2.0 0.0 0.00 0.00 0.00 42 1015.6
20260506213304 79 343 2.0 0.0 0.00 0.00 0.00 42 1015.6
20260506213240 79 343 2.0 0.0 0.00 0.00 0.00 42 1015.6
20260506213216 79 343 2.0 0.0 0.00 0.00 0.00 43 1015.6
20260506213138 79 43 2.0 7.0 0.00 0.00 0.00 42 1016.0
20260506213127 79 343 2.0 0.0 0.00 0.00 0.00 42 1015.6
20260506213057 79 343 2.0 0.0 0.00 0.00 0.00 42 1015.6
20260506213026 80 343 2.0 4.0 0.00 0.00 0.00 42 1015.6
20260506212948 80 303 2.0 0.0 0.00 0.00 0.00 42 1015.5
20260506212917 80 303 2.0 0.0 0.00 0.00 0.00 43 1015.5
20260506212635 80 268 1.0 2.0 0.00 0.00 0.00 42 1016.4
20260506212625 79 303 2.0 0.0 0.00 0.00 0.00 42 1015.5
20260506212424 78 303 2.0 0.0 0.00 0.00 0.00 42 1015.5
20260506212341 78 303 2.0 0.0 0.00 0.00 0.00 42 1015.5
20260506212318 78 303 2.0 0.0 0.00 0.00 0.00 43 1015.5
20260506212130 81 0 1.0 4.0 0.00 0.00 0.00 42 1016.3
20260506212117 78 303 2.0 0.0 0.00 0.00 0.00 43 1015.5
20260506212048 77 303 2.0 0.0 0.00 0.00 0.00 42 1015.5
20260506211949 78 303 2.0 0.0 0.00 0.00 0.00 42 1015.5
20260506211919 78 303 2.0 0.0 0.00 0.00 0.00 42 1015.5
20260506211847 78 303 2.0 0.0 0.00 0.00 0.00 41 1015.5
20260506211817 78 303 2.0 0.0 0.00 0.00 0.00 42 1015.5
20260506211626 80 252 2.0 4.0 0.00 0.00 0.00 42 1016.5
20260506211557 78 304 1.0 0.0 0.00 0.00 0.00 42 1015.5
20260506211507 78 304 1.0 0.0 0.00 0.00 0.00 43 1015.5
20260506211411 78 304 1.0 0.0 0.00 0.00 0.00 43 1015.5
20260506211341 78 304 1.0 0.0 0.00 0.00 0.00 44 1015.5
20260506211310 78 304 1.0 0.0 0.00 0.00 0.00 43 1015.5
20260506211214 77 304 1.0 0.0 0.00 0.00 0.00 43 1015.5
20260506211123 79 277 4.0 4.0 0.00 0.00 0.00 42 1016.3
20260506210837 78 304 1.0 0.0 0.00 0.00 0.00 41 1015.5
20260506210741 78 304 1.0 0.0 0.00 0.00 0.00 41 1015.5
20260506210658 79 304 1.0 0.0 0.00 0.00 0.00 41 1015.5
20260506210628 78 304 1.0 0.0 0.00 0.00 0.00 42 1015.5
20260506210620 79 5 0.0 2.0 0.00 0.00 0.00 41 1016.5
20260506210545 78 304 1.0 2.0 0.00 0.00 0.00 43 1015.5
20260506210509 78 192 3.0 0.0 0.00 0.00 0.00 43 1015.8
20260506210315 77 192 3.0 0.0 0.00 0.00 0.00 43 1015.8
20260506210245 78 192 3.0 0.0 0.00 0.00 0.00 42 1015.8
20260506210116 78 253 3.0 6.0 0.00 0.00 0.00 42 1016.6
20260506205911 78 192 3.0 0.0 0.00 0.00 0.00 44 1015.8
20260506205841 78 192 3.0 0.0 0.00 0.00 0.00 43 1015.8
20260506205811 78 192 3.0 0.0 0.00 0.00 0.00 42 1015.8
20260506205741 78 192 3.0 0.0 0.00 0.00 0.00 43 1015.8
20260506205658 78 192 3.0 0.0 0.00 0.00 0.00 42 1015.8
20260506205613 78 267 4.0 5.0 0.00 0.00 0.00 43 1016.2
20260506205602 77 192 3.0 0.0 0.00 0.00 0.00 43 1015.8
20260506205532 77 192 3.0 0.0 0.00 0.00 0.00 43 1015.8
20260506205502 77 192 3.0 0.0 0.00 0.00 0.00 44 1015.8
20260506205431 76 192 3.0 0.0 0.00 0.00 0.00 44 1015.8
20260506205408 77 192 3.0 0.0 0.00 0.00 0.00 43 1015.8
20260506205337 76 192 3.0 0.0 0.00 0.00 0.00 44 1015.8
20260506205306 76 192 3.0 3.0 0.00 0.00 0.00 43 1015.8
20260506205203 76 143 4.0 0.0 0.00 0.00 0.00 44 1015.8
20260506205108 79 161 1.0 2.0 0.00 0.00 0.00 42 1016.7
20260506205006 76 143 4.0 0.0 0.00 0.00 0.00 45 1015.8
20260506204804 75 143 4.0 0.0 0.00 0.00 0.00 44 1015.8
20260506204721 75 143 4.0 0.0 0.00 0.00 0.00 44 1015.8
20260506204645 75 143 4.0 0.0 0.00 0.00 0.00 44 1015.8
20260506204621 75 143 4.0 0.0 0.00 0.00 0.00 45 1015.8
20260506204606 78 323 2.0 5.0 0.00 0.00 0.00 43 1016.6
20260506204558 75 143 4.0 0.0 0.00 0.00 0.00 44 1015.8
20260506204528 75 143 4.0 0.0 0.00 0.00 0.00 45 1015.8
20260506204458 75 143 4.0 0.0 0.00 0.00 0.00 44 1015.8
20260506204415 74 143 4.0 0.0 0.00 0.00 0.00 45 1015.8
20260506204319 75 143 4.0 0.0 0.00 0.00 0.00 44 1015.8
20260506204103 77 247 4.0 4.0 0.00 0.00 0.00 43 1016.6
20260506203915 75 233 5.0 0.0 0.00 0.00 0.00 45 1016.1
20260506203832 75 233 5.0 0.0 0.00 0.00 0.00 44 1016.1
20260506203802 75 233 5.0 0.0 0.00 0.00 0.00 44 1016.1
20260506203732 75 233 5.0 0.0 0.00 0.00 0.00 43 1016.1
20260506203702 75 233 5.0 0.0 0.00 0.00 0.00 44 1016.1
20260506203632 76 233 5.0 0.0 0.00 0.00 0.00 44 1016.1
20260506203608 76 233 5.0 0.0 0.00 0.00 0.00 43 1016.1
20260506203602 75 225 3.0 5.0 0.00 0.00 0.00 44 1016.6
20260506203538 76 233 5.0 0.0 0.00 0.00 0.00 44 1016.1
20260506203514 76 233 5.0 0.0 0.00 0.00 0.00 44 1016.1
20260506203444 75 233 5.0 0.0 0.00 0.00 0.00 45 1016.1
20260506203348 75 233 5.0 0.0 0.00 0.00 0.00 46 1016.1
20260506203154 74 233 5.0 0.0 0.00 0.00 0.00 44 1016.1
20260506203124 74 233 5.0 0.0 0.00 0.00 0.00 45 1016.1
20260506203057 75 198 3.0 6.0 0.00 0.00 0.00 44 1016.8
20260506202924 75 233 5.0 0.0 0.00 0.00 0.00 45 1016.1
20260506202853 75 233 5.0 8.0 0.00 0.00 0.00 45 1016.1
20260506202816 75 185 4.0 0.0 0.00 0.00 0.00 46 1016.1
20260506202746 74 185 4.0 0.0 0.00 0.00 0.00 45 1016.1
20260506202650 74 185 4.0 0.0 0.00 0.00 0.00 45 1016.1
20260506202626 74 185 4.0 0.0 0.00 0.00 0.00 46 1016.1
20260506202602 74 185 4.0 0.0 0.00 0.00 0.00 45 1016.1
20260506202555 76 187 1.0 4.0 0.00 0.00 0.00 44 1017.0
20260506202539 74 185 4.0 0.0 0.00 0.00 0.00 45 1016.1
20260506202515 74 185 4.0 0.0 0.00 0.00 0.00 46 1016.1
20260506202451 74 185 4.0 0.0 0.00 0.00 0.00 45 1016.1
20260506202421 73 185 4.0 0.0 0.00 0.00 0.00 45 1016.1
20260506202051 75 195 2.0 8.0 0.00 0.00 0.00 45 1017.0
20260506202038 74 185 4.0 0.0 0.00 0.00 0.00 45 1016.1
20260506201937 74 185 4.0 0.0 0.00 0.00 0.00 46 1016.1
20260506201854 73 185 4.0 0.0 0.00 0.00 0.00 46 1016.1
20260506201824 73 185 4.0 0.0 0.00 0.00 0.00 45 1016.1
20260506201754 74 185 4.0 6.0 0.00 0.00 0.00 45 1016.1
20260506201718 74 124 8.0 0.0 0.00 0.00 0.00 46 1016.2
20260506201647 74 124 8.0 0.0 0.00 0.00 0.00 45 1016.2
20260506201611 74 124 8.0 0.0 0.00 0.00 0.00 45 1016.2
20260506201549 74 203 2.0 5.0 0.00 0.00 0.00 46 1017.1
20260506201534 74 124 8.0 0.0 0.00 0.00 0.00 45 1016.2
20260506201444 74 124 8.0 0.0 0.00 0.00 0.00 45 1016.2
20260506201354 74 124 8.0 0.0 0.00 0.00 0.00 45 1016.2
20260506201200 74 124 8.0 0.0 0.00 0.00 0.00 45 1016.2
20260506201130 74 124 8.0 0.0 0.00 0.00 0.00 44 1016.2
20260506201100 74 124 8.0 0.0 0.00 0.00 0.00 46 1016.2
20260506201045 73 160 2.0 8.0 0.00 0.00 0.00 46 1017.1
20260506201011 74 124 8.0 0.0 0.00 0.00 0.00 45 1016.2
20260506200639 73 124 8.0 0.0 0.00 0.00 0.00 46 1016.2
20260506200609 74 124 8.0 0.0 0.00 0.00 0.00 45 1016.2
20260506200542 74 212 4.0 6.0 0.00 0.00 0.00 45 1017.2
20260506200539 74 124 8.0 9.0 0.00 0.00 0.00 45 1016.2
20260506200436 74 164 4.0 0.0 0.00 0.00 0.00 45 1016.2
20260506200406 74 164 4.0 0.0 0.00 0.00 0.00 46 1016.2
20260506200038 73 216 1.0 9.0 0.00 0.00 0.00 46 1017.2
20260506200032 73 164 4.0 0.0 0.00 0.00 0.00 46 1016.2
20260506195943 73 164 4.0 0.0 0.00 0.00 0.00 46 1016.2
20260506195742 73 164 4.0 0.0 0.00 0.00 0.00 47 1016.2
20260506195653 73 164 4.0 0.0 0.00 0.00 0.00 46 1016.2
20260506195610 73 164 4.0 0.0 0.00 0.00 0.00 46 1016.2
20260506195535 73 114 3.0 6.0 0.00 0.00 0.00 46 1017.2
20260506195335 74 164 4.0 0.0 0.00 0.00 0.00 45 1016.2
20260506195306 74 164 4.0 0.0 0.00 0.00 0.00 46 1016.2
20260506195234 74 164 4.0 5.0 0.00 0.00 0.00 46 1016.2
20260506195032 74 177 6.0 6.0 0.00 0.00 0.00 45 1017.2
20260506195014 73 137 0.0 0.0 0.00 0.00 0.00 46 1016.4
20260506194938 73 137 0.0 0.0 0.00 0.00 0.00 46 1016.4
20260506194907 74 137 0.0 0.0 0.00 0.00 0.00 46 1016.4
20260506194837 74 137 0.0 0.0 0.00 0.00 0.00 45 1016.4
20260506194745 75 137 0.0 0.0 0.00 0.00 0.00 45 1016.4
20260506194715 75 137 0.0 0.0 0.00 0.00 0.00 44 1016.4
20260506194645 75 137 0.0 0.0 0.00 0.00 0.00 45 1016.4
20260506194549 75 137 0.0 0.0 0.00 0.00 0.00 45 1016.4
20260506194529 75 41 4.0 5.0 0.00 0.00 0.00 45 1017.3
20260506194454 75 137 0.0 0.0 0.00 0.00 0.00 45 1016.4
20260506194253 75 137 0.0 0.0 0.00 0.00 0.00 47 1016.4
20260506194033 74 137 0.0 0.0 0.00 0.00 0.00 47 1016.4
20260506194026 75 230 1.0 3.0 0.00 0.00 0.00 47 1017.3
20260506193950 74 137 0.0 2.0 0.00 0.00 0.00 47 1016.4
20260506193913 74 0.0 0.0 0.00 0.00 0.00 46
20260506193523 74 229 2.0 4.0 0.00 0.00 0.00 47 1017.4
20260506193020 72 209 4.0 6.0 0.00 0.00 0.00 47 1017.3
20260506192517 72 156 1.0 6.0 0.00 0.00 0.00 47 1017.6
20260506192013 71 227 2.0 8.0 0.00 0.00 0.00 48 1017.6
20260506191510 71 193 5.0 7.0 0.00 0.00 0.00 49 1017.8
20260506191006 72 149 3.0 5.0 0.00 0.00 0.00 48 1017.6
20260506190503 71 0 0.0 4.0 0.00 0.00 0.00 48 1017.6
20260506185959 70 14 4.0 4.0 0.00 0.00 0.00 49 1017.6
20260506185457 71 184 5.0 5.0 0.00 0.00 0.00 48 1017.7
20260506184954 73 239 3.0 5.0 0.00 0.00 0.00 46 1017.8
20260506184451 72 289 0.0 3.0 0.00 0.00 0.00 48 1017.9
20260506183948 71 203 0.0 5.0 0.00 0.00 0.00 50 1017.9
20260506183443 70 147 2.0 8.0 0.00 0.00 0.00 51 1017.8
20260506182941 69 121 3.0 9.0 0.00 0.00 0.00 50 1017.9
20260506182438 70 111 1.0 4.0 0.00 0.00 0.00 49 1017.9
20260506181935 69 210 4.0 6.0 0.00 0.00 0.00 51 1018.0
20260506181433 69 225 3.0 6.0 0.00 0.00 0.00 51 1018.0
20260506180930 69 173 5.0 7.0 0.00 0.00 0.00 51 1018.0
20260506180426 70 251 2.0 4.0 0.00 0.00 0.00 49 1018.3
20260506175923 69 80 3.0 6.0 0.00 0.00 0.00 52 1018.2
20260506175420 69 160 3.0 4.0 0.00 0.00 0.00 52 1018.0
20260506174916 68 332 2.0 3.0 0.00 0.00 0.00 52 1018.1
20260506174414 67 163 4.0 5.0 0.00 0.00 0.00 54 1018.4
20260506173911 67 117 3.0 6.0 0.00 0.00 0.00 53 1018.3
20260506173408 68 189 4.0 4.0 0.00 0.00 0.00 52 1018.3
20260506172905 68 142 1.0 3.0 0.00 0.00 0.00 53 1018.3
20260506172401 69 191 1.0 3.0 0.00 0.00 0.00 51 1018.2
20260506171859 68 351 0.0 3.0 0.00 0.00 0.00 52 1018.2
20260506171356 65 166 0.0 4.0 0.00 0.00 0.00 56 1018.5
20260506170854 65 156 2.0 7.0 0.00 0.00 0.00 57 1018.2
20260506170350 66 312 1.0 2.0 0.00 0.00 0.00 56 1018.3
20260506165849 66 297 1.0 6.0 0.00 0.00 0.00 56 1018.4
20260506165347 67 112 1.0 3.0 0.00 0.00 0.00 55 1018.3
20260506164843 66 114 0.0 2.0 0.00 0.00 0.00 57 1018.2
20260506164339 65 139 2.0 6.0 0.00 0.00 0.00 58 1018.2
20260506163837 66 28 2.0 3.0 0.00 0.00 0.00 57 1018.2
20260506163331 65 332 0.0 3.0 0.00 0.00 0.00 58 1018.3
20260506162827 66 36 3.0 3.0 0.00 0.00 0.00 57 1018.4
20260506162325 65 205 3.0 4.0 0.00 0.00 0.00 58 1018.3
20260506161823 63 173 4.0 4.0 0.00 0.00 0.00 61 1018.2
20260506161320 64 128 1.0 3.0 0.00 0.00 0.00 60 1018.2
20260506160817 63 54 0.0 3.0 0.00 0.00 0.00 62 1018.2
20260506160314 62 184 2.0 4.0 0.00 0.00 0.00 62 1018.3
20260506155813 62 185 1.0 4.0 0.00 0.00 0.00 63 1018.3
20260506155309 63 72 0.0 6.0 0.00 0.00 0.00 63 1018.2
20260506153421 63 115 0.0 2.0 0.00 0.00 0.00 64 1018.5
20260506152919 62 136 1.0 4.0 0.00 0.00 0.00 65 1018.5
20260506152415 61 125 2.0 4.0 0.00 0.00 0.00 66 1018.4
20260506151914 61 78 3.0 4.0 0.00 0.00 0.00 65 1018.4
20260506151410 62 113 0.0 2.0 0.00 0.00 0.00 64 1018.5
20260506150908 60 120 4.0 4.0 0.00 0.00 0.00 66 1018.5
20260506150404 60 131 1.0 3.0 0.00 0.00 0.00 68 1018.3
20260506145901 60 155 2.0 3.0 0.00 0.00 0.00 67 1018.4
20260506145357 61 121 1.0 3.0 0.00 0.00 0.00 66 1018.5
20260506144855 60 129 2.0 3.0 0.00 0.00 0.00 68 1018.4
20260506144351 59 93 0.0 3.0 0.00 0.00 0.00 70 1018.4
20260506143850 59 151 2.0 2.0 0.00 0.00 0.00 69 1018.5
20260506143346 62 181 2.0 2.0 0.00 0.00 0.00 63 1018.5
20260506142845 61 132 0.0 1.0 0.00 0.00 0.00 63 1018.1
20260506142342 61 72 0.0 2.0 0.00 0.00 0.00 64 1018.5
20260506141840 59 84 1.0 2.0 0.00 0.00 0.00 68 1018.3
20260506141338 56 77 0.0 2.0 0.00 0.00 0.00 72 1018.3
20260506140836 55 89 2.0 2.0 0.00 0.00 0.00 74 1018.3
20260506140333 53 79 2.0 2.0 0.00 0.00 0.00 78 1018.3
20260506135829 53 18 1.0 2.0 0.00 0.00 0.00 78 1018.1
20260506135326 51 304 0.0 3.0 0.00 0.00 0.00 81 1018.2
20260506134823 51 28 5.0 6.0 0.00 0.00 0.00 82 1018.0
20260506134319 50 48 0.0 3.0 0.00 0.00 0.00 83 1018.0
20260506133816 50 89 1.0 3.0 0.00 0.00 0.00 83 1018.1
20260506133313 50 53 1.0 3.0 0.00 0.00 0.00 84 1017.9
20260506132810 49 16 2.0 3.0 0.00 0.00 0.00 84 1018.0
20260506132307 49 0 2.0 3.0 0.00 0.00 0.00 85 1018.0
20260506131805 49 1 3.0 4.0 0.00 0.00 0.00 86 1017.8
20260506131301 48 6 0.0 2.0 0.00 0.00 0.00 86 1017.9
20260506130758 49 92 1.0 4.0 0.00 0.00 0.00 86 1017.8
20260506130254 49 89 0.0 3.0 0.00 0.00 0.00 86 1017.9
20260506125753 49 45 3.0 4.0 0.00 0.00 0.00 86 1017.7
20260506125250 49 62 1.0 2.0 0.00 0.00 0.00 86 1017.5
20260506124748 49 19 2.0 2.0 0.00 0.00 0.00 85 1017.7
20260506124245 49 27 1.0 3.0 0.00 0.00 0.00 85 1017.6
20260506123743 49 26 2.0 4.0 0.00 0.00 0.00 85 1017.6
20260506123242 49 78 0.0 2.0 0.00 0.00 0.00 84 1017.5
20260506122738 50 55 0.0 3.0 0.00 0.00 0.00 84 1017.5
20260506122235 50 57 0.0 5.0 0.00 0.00 0.00 84 1017.5
20260506121733 49 0 5.0 6.0 0.00 0.00 0.00 84 1017.6
20260506121230 49 18 4.0 6.0 0.00 0.00 0.00 84 1017.3
20260506120727 50 23 3.0 3.0 0.00 0.00 0.00 84 1017.5
20260506120225 50 15 3.0 5.0 0.00 0.00 0.00 84 1017.2
20260506115723 50 357 1.0 2.0 0.00 0.00 0.00 84 1017.4
20260506115221 50 26 2.0 3.0 0.00 0.00 0.00 84 1017.5
20260506114718 50 50 2.0 4.0 0.00 0.00 0.00 84 1017.4
20260506114215 50 334 2.0 5.0 0.00 0.00 0.00 83 1017.4
20260506113714 50 8 3.0 5.0 0.00 0.00 0.00 83 1017.4
20260506113211 50 357 3.0 6.0 0.00 0.00 0.00 83 1017.4
20260506112707 50 22 3.0 4.0 0.00 0.00 0.00 83 1017.5
20260506112205 50 11 4.0 4.0 0.00 0.00 0.00 84 1017.4
20260506111702 50 20 5.0 5.0 0.00 0.00 0.00 83 1017.3
20260506111200 50 28 0.0 4.0 0.00 0.00 0.00 83 1017.2
20260506110657 50 27 4.0 5.0 0.00 0.00 0.00 83 1017.2
20260506110154 50 343 1.0 4.0 0.00 0.00 0.00 84 1017.4
20260506105651 50 27 3.0 5.0 0.00 0.00 0.00 84 1017.1
20260506105148 50 35 0.0 4.0 0.00 0.00 0.00 84 1017.4
20260506104646 50 22 1.0 3.0 0.00 0.00 0.00 84 1017.0
20260506104143 50 16 4.0 5.0 0.00 0.00 0.00 84 1017.3
20260506103640 50 340 1.0 4.0 0.00 0.00 0.00 84 1017.4
20260506103137 50 30 3.0 6.0 0.00 0.00 0.00 84 1017.4
20260506102635 50 33 4.0 5.0 0.00 0.00 0.00 84 1017.2
20260506102132 50 24 4.0 4.0 0.00 0.00 0.00 85 1017.3
20260506101629 50 33 0.0 3.0 0.00 0.00 0.00 84 1017.3
20260506101126 50 17 0.0 4.0 0.00 0.00 0.00 84 1017.3
20260506100624 50 32 0.0 3.0 0.00 0.00 0.00 84 1017.3
20260506100122 50 33 4.0 4.0 0.00 0.00 0.00 84 1017.4
20260506095621 50 48 0.0 4.0 0.00 0.00 0.00 84 1017.4
20260506095117 50 76 0.0 4.0 0.00 0.00 0.00 84 1017.5
20260506094614 50 4 4.0 4.0 0.00 0.00 0.00 84 1017.4
20260506094112 50 3 4.0 4.0 0.00 0.00 0.00 84 1017.5
20260506093610 50 43 2.0 5.0 0.00 0.00 0.00 84 1017.6
20260506093107 50 33 2.0 4.0 0.00 0.00 0.00 84 1017.6
20260506092605 50 42 0.0 2.0 0.00 0.00 0.00 84 1017.5
20260506092101 50 113 0.0 1.0 0.00 0.00 0.00 84 1017.6
20260506091600 50 17 1.0 5.0 0.00 0.00 0.00 83 1017.7
20260506091057 50 347 1.0 3.0 0.00 0.00 0.00 84 1017.7
20260506090555 50 19 2.0 2.0 0.00 0.00 0.00 85 1017.5
20260506090050 50 38 2.0 3.0 0.00 0.00 0.00 85 1017.6
20260506085548 50 49 1.0 2.0 0.00 0.00 0.00 85 1017.5
20260506085044 50 56 1.0 2.0 0.00 0.00 0.00 85 1017.6
20260506084541 50 39 2.0 2.0 0.00 0.00 0.00 85 1017.7
20260506084037 50 48 1.0 2.0 0.00 0.00 0.00 84 1017.8
20260506083535 50 77 0.0 1.0 0.00 0.00 0.00 84 1017.7
20260506083032 51 52 2.0 2.0 0.00 0.00 0.00 84 1017.9
20260506082528 51 63 0.0 2.0 0.00 0.00 0.00 84 1017.8
20260506082024 51 11 1.0 3.0 0.00 0.00 0.00 84 1018.0
20260506081523 51 48 0.0 2.0 0.00 0.00 0.00 84 1017.8
20260506081020 51 75 0.0 0.0 0.00 0.00 0.00 83 1017.9
20260506080517 51 56 0.0 2.0 0.00 0.00 0.00 83 1017.8
20260506073500 51 317 2.0 4.0 0.00 0.00 0.00 81 1018.0
20260506072958 51 23 2.0 3.0 0.00 0.00 0.00 81 1017.9
20260506072455 51 38 2.0 4.0 0.00 0.00 0.00 81 1017.8
20260506071953 51 43 2.0 4.0 0.00 0.00 0.00 81 1017.9
20260506071450 51 25 4.0 4.0 0.00 0.00 0.00 81 1017.7
20260506070947 51 20 2.0 4.0 0.00 0.00 0.00 81 1017.7
20260506070444 51 19 2.0 6.0 0.00 0.00 0.00 80 1017.7
20260506062422 51 53 1.0 2.0 0.00 0.00 0.00 79 1017.1
20260506061917 52 47 0.0 2.0 0.00 0.00 0.00 79 1017.1
20260506061414 52 44 1.0 2.0 0.00 0.00 0.00 78 1017.2
20260506060912 52 16 2.0 3.0 0.00 0.00 0.00 78 1017.0
20260506060410 52 21 2.0 3.0 0.00 0.00 0.00 77 1017.1
20260506051342 53 23 2.0 4.0 0.00 0.00 0.00 75 1016.8
20260506050839 53 52 0.0 4.0 0.00 0.00 0.00 74 1016.6
20260506050337 54 24 4.0 4.0 0.00 0.00 0.00 73 1016.5
20260506044827 54 75 0.0 4.0 0.00 0.00 0.00 74 1016.3
20260506044325 54 40 2.0 5.0 0.00 0.00 0.00 74 1016.2
20260506043822 54 54 2.0 4.0 0.00 0.00 0.00 74 1016.4
20260506043319 54 8 2.0 5.0 0.00 0.00 0.00 74 1016.3
20260506042817 54 74 0.0 5.0 0.00 0.00 0.00 74 1016.0
20260506042316 54 20 3.0 3.0 0.00 0.00 0.00 74 1016.0
20260506041815 55 33 2.0 2.0 0.00 0.00 0.00 74 1016.0
20260506041311 55 33 5.0 5.0 0.00 0.00 0.00 73 1015.9
20260506040808 55 23 2.0 2.0 0.00 0.00 0.00 75 1015.9
20260506040305 56 60 0.0 2.0 0.00 0.00 0.00 74 1015.9
20260506035802 56 46 2.0 2.0 0.00 0.00 0.00 76 1015.7
20260506035259 57 67 1.0 2.0 0.00 0.00 0.00 75 1015.6
20260506034756 57 70 1.0 2.0 0.00 0.00 0.00 74 1015.6
20260506034253 57 66 0.0 1.0 0.00 0.00 0.00 73 1015.5
20260506033750 58 32 0.0 2.0 0.00 0.00 0.00 72 1015.4
20260506033247 58 57 2.0 2.0 0.00 0.00 0.00 71 1015.5
20260506032744 59 126 0.0 1.0 0.00 0.00 0.00 70 1015.4
20260506032241 59 52 0.0 3.0 0.00 0.00 0.00 69 1015.2
20260506031737 59 29 0.0 2.0 0.00 0.00 0.00 68 1015.1
20260506031235 59 52 0.0 2.0 0.00 0.00 0.00 68 1015.0
20260506030733 60 69 0.0 2.0 0.00 0.00 0.00 67 1015.0
20260506030230 60 4 2.0 3.0 0.00 0.00 0.00 66 1014.9
20260506025727 60 29 1.0 1.0 0.00 0.00 0.00 66 1014.8
20260506025224 60 50 2.0 3.0 0.00 0.00 0.00 66 1014.8
20260506024720 60 96 1.0 2.0 0.00 0.00 0.00 66 1014.7
20260506024217 60 42 2.0 3.0 0.00 0.00 0.00 66 1014.4
20260506023713 61 31 0.0 2.0 0.00 0.00 0.00 66 1014.6
20260506023211 61 24 1.0 4.0 0.00 0.00 0.00 65 1014.5
20260506022707 61 180 0.0 1.0 0.00 0.00 0.00 67 1014.4
20260506022205 61 12 1.0 2.0 0.00 0.00 0.00 66 1014.4
20260506021703 61 57 2.0 2.0 0.00 0.00 0.00 66 1014.2
20260506021200 61 147 0.0 2.0 0.00 0.00 0.00 65 1014.4
20260506020656 62 326 0.0 3.0 0.00 0.00 0.00 63 1014.4
20260506020154 62 34 2.0 3.0 0.00 0.00 0.00 62 1014.3
20260506015652 62 358 2.0 4.0 0.00 0.00 0.00 62 1014.3
20260506015149 62 229 1.0 4.0 0.00 0.00 0.00 61 1014.2
20260506014646 62 58 1.0 3.0 0.00 0.00 0.00 62 1014.1
20260506014142 63 357 2.0 2.0 0.00 0.00 0.00 61 1014.2
20260506013640 63 225 1.0 3.0 0.00 0.00 0.00 61 1014.2
20260506013137 64 332 1.0 4.0 0.00 0.00 0.00 60 1014.2
20260506012633 64 7 2.0 3.0 0.00 0.00 0.00 59 1014.1
20260506012130 65 39 0.0 4.0 0.00 0.00 0.00 57 1014.1
20260506011627 66 31 0.0 4.0 0.00 0.00 0.00 57 1013.9
20260506011123 66 253 2.0 5.0 0.00 0.00 0.00 56 1013.9
20260506010622 66 302 1.0 3.0 0.00 0.00 0.00 54 1014.1
20260506010119 67 299 1.0 2.0 0.00 0.00 0.00 54 1013.9
20260506005616 67 27 1.0 3.0 0.00 0.00 0.00 53 1014.0
20260506005112 67 36 2.0 2.0 0.00 0.00 0.00 54 1013.9
20260506004609 67 8 2.0 4.0 0.00 0.00 0.00 54 1013.9
20260506004106 66 180 1.0 4.0 0.00 0.00 0.00 53 1014.0
20260506003602 66 198 1.0 5.0 0.00 0.00 0.00 52 1013.8
20260506003058 67 65 0.0 2.0 0.00 0.00 0.00 52 1013.8
20260506002554 66 129 0.0 3.0 0.00 0.00 0.00 52 1013.8
20260506002050 64 142 2.0 5.0 0.00 0.00 0.00 55 1013.8
20260506001547 65 180 2.0 7.0 0.00 0.00 0.00 53 1013.9
20260506001044 64 151 0.0 4.0 0.00 0.00 0.00 54 1013.7
20260506000542 63 93 1.0 2.0 0.00 0.00 0.00 54 1013.8
20260506000039 64 141 0.0 3.0 0.00 0.00 0.00 54 1013.8
20260505235537 64 110 0.0 3.0 0.00 0.00 0.00 53 1013.8
20260505235033 64 180 3.0 4.0 0.00 0.00 0.00 54 1013.7
20260505234530 63 111 1.0 5.0 0.00 0.00 0.00 55 1013.8
20260505234027 63 86 3.0 5.0 0.00 0.00 0.00 55 1013.6
20260505233525 63 96 1.0 4.0 0.00 0.00 0.00 56 1013.9
20260505233022 62 170 4.0 4.0 0.00 0.00 0.00 55 1013.9
20260505232520 63 121 3.0 6.0 0.00 0.00 0.00 55 1013.8